Flag for Canada Weather past 2 weeks in Owen Sound, Ontario, Canada

Now
25 °F

Passing clouds.


Feels Like: 25 °F
Forecast: 23 / 35 °F
Wind: No wind

Location: Wiarton

Current Time: Mar 31, 2015 at 5:13:30 AM

Latest Report: Mar 31, 2015 at 4:00 AM


Visibility: 15 mi

Pressure: 29.88 "Hg

Humidity: 100%

Dew point: 25 °F

Location of Owen SoundLocation

Historic Weather in Owen Sound — Graph

°F

Owen Sound temperature yesterday

Maximum temperature yesterday: 36 °F (at 10:00 AM)
Minimum temperature yesterday: 30 °F (at 9:00 PM)
Average temperature yesterday: 34 °F

Past Weeks' High & Low Weather Summary

 TemperatureHumidityPressure
High43 °F (Mar 16, 11:00 AM)100% (Mar 16, 10:00 PM)30.47 "Hg (Mar 16, 10:00 PM)
Low5 °F (Mar 23, 7:00 AM)26% (Mar 19, 1:00 PM)29.52 "Hg (Mar 30, 3:45 AM)
Average26 °F70%30.08 "Hg
* Reported Mar 16 4:00 AM — Mar 31 4:00 AM, Owen Sound, Weather by CustomWeather, © 2015

Note: Actual official high and low records may vary slightly from our data, if they occured in-between our weather recording intervals... More about our weather records

Advertising

Owen Sound weather history for previous 24 hours

 ConditionsComfort  
Time TempWeatherWind HumidityBarometerVisibility
4:00 AM
Tue, Mar 31
25 °FPassing clouds.No wind100%29.88 "Hg15 mi
3:00 AM25 °FPassing clouds.No wind93%29.89 "Hg15 mi
2:00 AM25 °FPassing clouds.2 mph100%29.90 "Hg15 mi
1:00 AM28 °FPassing clouds.2 mph93%29.90 "Hg15 mi
12:00 AM30 °FClear.2 mph86%29.92 "Hg15 mi
11:00 PM
Mon, Mar 30
30 °FClear.8 mph86%29.92 "Hg15 mi
10:00 PM30 °FPassing clouds.7 mph86%29.92 "Hg15 mi
9:00 PM30 °FPassing clouds.9 mph86%29.90 "Hg15 mi
8:00 PM32 °FPassing clouds.12 mph80%29.89 "Hg15 mi
7:00 PM34 °FPassing clouds.12 mph75%29.88 "Hg15 mi
6:00 PM36 °FPassing clouds.17 mph70%29.86 "Hg15 mi
5:00 PM36 °FPassing clouds.17 mph70%29.85 "Hg15 mi
4:00 PM36 °FScattered clouds.18 mph75%29.83 "Hg15 mi
3:00 PM36 °FPartly sunny.20 mph75%29.81 "Hg15 mi
2:00 PM36 °FPartly sunny.21 mph75%29.80 "Hg15 mi
1:00 PM36 °FPartly sunny.18 mph75%29.77 "Hg15 mi
12:00 PM36 °FOvercast.14 mph81%29.76 "Hg15 mi
11:00 AM36 °FBroken clouds.16 mph75%29.74 "Hg15 mi
10:00 AM36 °FBroken clouds.16 mph75%29.72 "Hg15 mi
9:00 AM34 °FPartly sunny.21 mph87%29.69 "Hg15 mi
8:00 AM34 °FPassing clouds.18 mph87%29.66 "Hg15 mi
7:00 AM34 °FOvercast.18 mph87%29.62 "Hg15 mi
6:00 AM34 °FMostly cloudy.21 mph93%29.58 "Hg15 mi
5:00 AM34 °FLight snow. Overcast.17 mph93%29.55 "Hg10 mi
Weather by CustomWeather, © 2015

See weather overviewHow to use our weather pages